Regional Weather Roundup
Issued by NWS

Home | Current Version | Previous Version | Graphics & Text | Print | Product List | Glossary On
Versions: 1 2 3 4 5 6 7 8 9 10 11 12 13 14 15 16 17 18 19 20 21 22 23 24 25 26 27 28 29 30 31 32 33 34 35 36 37 38 39 40 41 42 43 44 45 46 47 48 49 50
000
ASUS45 KCYS 201910
RWRWY

WYOMING REGIONAL WEATHER ROUNDUP
NATIONAL WEATHER SERVICE CHEYENNE WY
100 PM MDT MON APR 20 2015

NOTE:  "FAIR" INDICATES FEW OR NO CLOUDS BELOW 12,000 FEET
WITH NO SIGNIFICANT WEATHER AND/OR OBSTRUCTIONS TO VISIBILITY.

WYZ001-202000-
YELLOWSTONE NATIONAL PARK

CITY           SKY/WX    TMP DP  RH WIND       PRES   REMARKS
LK YELLOWSTONE   N/A     42  16  34 CALM      30.02F
W YELLOWSTONE  NOT AVBL

$$
WYZ002>013-054>058-071-098>099-202000-
NORTHERN WYOMING

CITY           SKY/WX    TMP DP  RH WIND       PRES   REMARKS
JACKSON        FAIR      52  18  25 W8        29.97F
CODY           FAIR      50  25  37 E12       29.95F
GREYBULL       FAIR      56  17  21 N12G22    29.94F
WORLAND        FAIR      55  20  25 N10       29.95F
SHERIDAN       FAIR      54  24  31 NW20G30   29.93F
BUFFALO        FAIR      52  21  29 N18G25    29.93F
GILLETTE       FAIR      50  19  29 N14G32    29.91F
HULETT         MOCLDY    46  19  34 N16G22    29.91F
NEWCASTLE      FAIR      46  18  31 NW22G29   29.91F

$$
WYZ014>020-022>026-101>103-202000-
CENTRAL WYOMING

CITY           SKY/WX    TMP DP  RH WIND       PRES   REMARKS
BIG PINEY      FAIR      51  23  33 VRB6      29.97F
PINEDALE       FAIR      50  16  25 NW10G23   29.97F
DUBOIS         FAIR      50   9  18 NW16G26   29.94F
LANDER         FAIR      51  27  39 VRB3      29.94F
RIVERTON       FAIR      50  24  36 E7        29.96F
CASPER         PTSUNNY   51  26  37 W15G33    29.95F
DOUGLAS        PTSUNNY   47  23  38 NW15G23   29.94F

$$
WYZ021-027>030-104>119-202000-
SOUTHERN WYOMING

CITY           SKY/WX    TMP DP  RH WIND       PRES   REMARKS
EVANSTON       PTSUNNY   56  22  26 SW13      29.98F
KEMMERER       MOCLDY    54  21  28 W16       29.99F
FORT BRIDGER   PTCLDY    57  23  26 NW9G20    30.00F
ROCK SPRINGS   FAIR      50  29  44 W9G20     29.98F
DIXON          MOCLDY    48  31  52 SW8       30.01F
RAWLINS        PTSUNNY   46  29  51 W13       29.98F
SARATOGA       FAIR      37  32  81 W3        30.00F
LARAMIE        PTSUNNY   26  24  92 W6        29.97S FOG     WCI  19
CHEYENNE       FAIR      44  19  36 N23G30    29.95F
TORRINGTON     PTSUNNY   52  23  32 NW17G25   29.92F
PINE BLUFFS    MOCLDY    48  23  37 NW21G29   29.94F

$$


USA.gov is the U.S. government's official web portal to all federal, state and local government web resources and services.